N1OTX Weather Reports


time (UTC)temp
F
wind
direction
speed
knots
gust
knots
rain 1hr
in
rain 24hr
in
rain mn
in
humidity
%
barometer
mb
20260901201040 64 148 0.9 3.5 0.04 0.60 0.60 94 1017.7
20260901200539 64 130 1.7 7.8 0.05 0.60 0.60 94 1017.7
20260901200019 64 121 2.6 7.8 0.07 0.60 0.60 95 1017.6
20260901195525 64 130 1.7 6.1 0.09 0.60 0.60 95 1017.6
20260901195021 64 115 2.6 5.2 0.12 0.60 0.60 95 1017.6
20260901194521 64 111 1.7 5.2 0.14 0.59 0.59 95 1017.7
20260901194020 64 103 1.7 7.0 0.15 0.59 0.59 94 1017.7
20260901193520 64 99 1.7 5.2 0.16 0.59 0.59 94 1017.6
20260901193040 64 122 2.6 7.8 0.17 0.58 0.58 94 1017.7
20260901192519 64 108 3.5 7.8 0.17 0.58 0.58 94 1017.7
20260901192019 65 115 2.6 7.0 0.17 0.57 0.57 93 1017.6
20260901191519 65 111 3.5 8.7 0.18 0.56 0.56 93 1017.5
20260901191021 65 103 4.3 11.3 0.19 0.56 0.56 96 1017.4
20260901190520 66 115 4.3 11.3 0.21 0.55 0.55 98 1017.5
20260901190020 66 118 0.9 5.2 0.21 0.53 0.53 98 1017.5
20260901185520 66 71 0.9 3.5 0.20 0.50 0.50 98 1017.6
20260901185020 66 84 0.9 5.2 0.21 0.48 0.48 98 1017.5
20260901184519 66 87 0.9 5.2 0.20 0.45 0.45 97 1017.5
20260901184019 66 71 0.9 3.5 0.21 0.44 0.44 97 1017.4
20260901183521 66 69 0.9 2.6 0.21 0.42 0.42 97 1017.4
20260901183021 66 66 0.9 2.6 0.22 0.41 0.41 97 1017.4
20260901182601 66 104 2.6 7.0 0.22 0.41 0.41 97 1017.3
20260901182020 66 90 3.5 6.1 0.22 0.40 0.40 97 1017.1
20260901181520 66 102 1.7 7.8 0.21 0.38 0.38 97 1017.2
20260901181020 66 99 3.5 7.8 0.20 0.36 0.36 98 1017.3
20260901180540 66 93 0.9 2.6 0.19 0.34 0.34 98 1017.1
20260901180019 66 92 1.7 5.2 0.19 0.32 0.32 98 1017.1
20260901175519 66 84 2.6 6.1 0.17 0.30 0.30 98 1017.0
20260901175021 66 84 1.7 6.1 0.14 0.27 0.27 97 1017.0
20260901174521 66 86 1.7 3.5 0.11 0.25 0.25 97 1017.0
20260901174100 66 85 1.7 5.2 0.09 0.23 0.23 97 1017.1
20260901173540 66 72 1.7 3.5 0.07 0.21 0.21 97 1016.9
20260901173020 66 79 1.7 3.5 0.06 0.19 0.19 96 1017.0
20260901172540 66 83 2.6 5.2 0.05 0.19 0.19 96 1017.1
20260901172020 66 76 0.9 5.2 0.05 0.18 0.18 96 1017.3
20260901171519 66 76 1.7 3.5 0.04 0.17 0.17 95 1017.2
20260901171019 67 76 1.7 5.2 0.03 0.16 0.16 95 1017.3
20260901170519 67 83 1.7 6.1 0.01 0.15 0.15 94 1017.2
20260901170039 67 95 2.6 6.1 0.00 0.13 0.13 93 1017.2
20260901165601 67 94 2.6 6.1 0.00 0.13 0.13 93 1017.3
20260901165020 67 93 2.6 7.0 0.00 0.13 0.13 93 1017.4
20260901164540 67 96 3.5 8.7 0.00 0.13 0.13 93 1017.4
20260901164100 67 81 1.7 6.1 0.00 0.13 0.13 93 1017.4
20260901163519 67 103 2.6 6.1 0.00 0.13 0.13 92 1017.3
20260901163019 67 95 1.7 6.1 0.00 0.13 0.13 92 1017.2
20260901162519 67 111 2.6 7.0 0.00 0.13 0.13 92 1017.3
20260901162018 67 98 1.7 2.6 0.00 0.13 0.13 93 1017.3
20260901161518 67 101 1.7 5.2 0.00 0.13 0.13 92 1017.2
20260901161025 68 127 2.6 6.1 0.00 0.13 0.13 92 1017.2
20260901160520 68 132 1.7 6.1 0.00 0.13 0.13 92 1017.0
20260901160020 68 111 3.5 7.8 0.00 0.13 0.13 91 1017.2
20260901155520 68 115 3.5 7.8 0.00 0.13 0.13 91 1017.2
20260901155019 68 115 2.6 5.2 0.00 0.13 0.13 91 1017.3
20260901154539 68 132 1.7 5.2 0.00 0.13 0.13 92 1017.2
20260901154021 68 122 2.6 6.1 0.00 0.13 0.13 91 1017.2
20260901153521 68 136 3.5 7.8 0.00 0.13 0.13 91 1017.3
20260901153020 68 127 3.5 7.8 0.00 0.13 0.13 91 1017.4
20260901152520 69 141 4.3 7.8 0.00 0.13 0.13 90 1017.3
20260901152020 69 137 1.7 7.8 0.00 0.13 0.13 90 1017.2
20260901151519 69 120 1.7 3.5 0.00 0.13 0.13 90 1017.4
20260901151019 69 140 0.9 2.6 0.00 0.13 0.13 92 1017.2
20260901150519 68 132 1.7 3.5 0.00 0.13 0.13 93 1017.3
20260901150019 68 114 1.7 5.2 0.00 0.13 0.13 93 1017.3
20260901145519 68 117 2.6 5.2 0.00 0.13 0.13 93 1017.3
20260901145018 68 147 1.7 3.5 0.00 0.13 0.13 94 1017.2
20260901144520 68 143 1.7 5.2 0.00 0.13 0.13 95 1017.2
20260901144020 68 142 1.7 3.5 0.00 0.13 0.13 96 1017.4
20260901143520 68 93 1.7 5.2 0.00 0.13 0.13 96 1017.4
20260901143019 67 128 2.6 5.2 0.01 0.13 0.13 97 1017.4
20260901142519 67 124 1.7 3.5 0.02 0.13 0.13 97 1017.5
20260901142019 67 104 0.9 1.7 0.02 0.13 0.13 98 1017.5
20260901141519 67 94 0.9 3.5 0.03 0.13 0.13 98 1017.6
20260901141019 67 78 0.9 3.5 0.04 0.13 0.13 98 1017.4
20260901140520 67 93 1.7 3.5 0.04 0.13 0.13 98 1017.4
20260901140020 66 134 0.0 3.5 0.05 0.13 0.13 99 1017.4
20260901135520 66 88 1.7 5.2 0.06 0.13 0.13 99 1017.5
20260901135019 66 93 0.9 1.7 0.07 0.13 0.13 99 1017.6
20260901134519 66 94 0.0 1.7 0.08 0.13 0.13 99 1017.7
20260901134100 66 86 0.9 1.7 0.09 0.13 0.13 99 1017.7
20260901133519 66 0.0 0.0 0.10 0.13 0.13 98 1017.7
20260901133019 66 68 0.0 0.9 0.11 0.12 0.12 98 1017.8
20260901132518 66 62 0.0 1.7 0.11 0.12 0.12 98 1017.5
20260901132020 66 33 0.0 0.9 0.11 0.11 0.11 98 1017.7
20260901131520 66 29 0.0 0.9 0.10 0.11 0.11 98 1017.7
20260901131020 66 1 0.0 0.9 0.09 0.10 0.10 98 1017.7
20260901130519 66 57 0.0 1.7 0.09 0.09 0.09 98 1017.5
20260901130059 66 175 0.0 1.7 0.08 0.08 0.08 98 1017.5
20260901125521 66 0.0 0.0 0.07 0.08 0.08 97 1017.7
20260901125021 66 0.0 0.0 0.06 0.07 0.07 97 1017.7
20260901124521 66 0.0 0.0 0.05 0.06 0.06 96 1017.6
20260901124020 66 0.0 0.0 0.04 0.04 0.04 96 1017.6
20260901123520 66 0.0 0.0 0.02 0.03 0.03 96 1017.7
20260901123020 66 0.0 0.0 0.01 0.02 0.02 96 1017.6
20260901122540 66 0.0 0.0 0.00 0.00 0.00 95 1017.6
20260901122019 66 271 0.0 0.9 0.00 0.00 0.00 95 1017.5
20260901121519 66 271 0.0 0.9 0.00 0.00 0.00 95 1017.5
20260901121020 66 0.0 0.0 0.00 0.00 0.00 95 1017.5
20260901120521 66 0.0 0.0 0.00 0.00 0.00 95 1017.6
20260901120101 66 0.0 0.0 0.00 0.00 0.00 95 1017.6
20260901115520 66 0.0 0.0 0.00 0.00 0.00 95 1017.7
20260901115020 66 0.0 0.0 0.00 0.00 0.00 95 1017.7
20260901114519 66 0.0 0.0 0.00 0.00 0.00 95 1017.6
20260901114019 66 0.0 0.0 0.00 0.00 0.00 95 1017.5
20260901113519 66 0.0 0.0 0.00 0.00 0.00 95 1017.6
20260901113023 66 0.0 0.0 0.00 0.00 0.00 94 1017.5
20260901112520 66 0.0 0.0 0.00 0.00 0.00 94 1017.5
20260901112020 66 0.0 0.0 0.00 0.00 0.00 94 1017.5
20260901111540 66 0.0 0.0 0.00 0.00 0.00 94 1017.4
20260901111020 65 272 0.0 0.9 0.00 0.00 0.00 94 1017.4
20260901110540 65 271 0.0 0.9 0.00 0.00 0.00 94 1017.3
20260901110019 65 271 0.0 0.9 0.00 0.00 0.00 94 1017.2
20260901105539 65 0.0 0.0 0.00 0.00 0.00 94 1017.2
20260901105021 65 0.0 0.0 0.00 0.00 0.00 93 1017.3
20260901104520 65 271 0.0 0.9 0.00 0.00 0.00 93 1017.3
20260901104040 65 0.0 0.0 0.00 0.00 0.00 93 1017.2
20260901103621 65 0.0 0.0 0.00 0.00 0.00 93 1017.1
20260901103022 65 0.0 0.0 0.00 0.00 0.00 93 1017.1
20260901102520 65 280 0.0 0.9 0.00 0.00 0.00 93 1017.1
20260901102019 65 303 0.0 0.9 0.00 0.00 0.00 93 1016.9
20260901101539 65 298 0.0 1.7 0.00 0.00 0.00 93 1017.0
20260901101101 65 305 0.0 0.9 0.00 0.00 0.00 93 1017.0
20260901100520 65 307 0.0 0.9 0.00 0.00 0.00 93 1016.8
20260901100020 65 308 0.0 0.9 0.00 0.00 0.00 93 1016.8
20260901095520 65 307 0.0 0.9 0.00 0.00 0.00 92 1016.8
20260901095020 65 309 0.0 0.9 0.00 0.00 0.00 92 1016.8
20260901094519 65 289 0.0 0.9 0.00 0.00 0.00 92 1016.8
20260901094019 66 294 0.0 0.9 0.00 0.00 0.00 92 1016.9
20260901093519 66 302 0.0 0.9 0.00 0.00 0.00 92 1016.8
20260901093021 66 0.0 0.0 0.00 0.00 0.00 92 1016.9
20260901092541 66 0.0 0.0 0.00 0.00 0.00 91 1016.9
20260901092020 66 220 0.0 0.9 0.00 0.00 0.00 90 1016.9
20260901091520 66 0.0 0.0 0.00 0.00 0.00 90 1016.9
20260901091040 66 0.0 0.0 0.00 0.00 0.00 89 1016.9
20260901090520 66 219 0.0 0.9 0.00 0.00 0.00 88 1016.9
20260901090019 66 219 0.0 0.9 0.00 0.00 0.00 87 1016.8
20260901085519 67 227 0.0 1.7 0.00 0.00 0.00 87 1016.8
20260901085021 67 240 0.0 3.5 0.00 0.00 0.00 86 1016.9
20260901084521 67 223 0.0 3.5 0.00 0.00 0.00 85 1016.9
20260901084021 67 185 0.9 1.7 0.00 0.00 0.00 85 1016.9
20260901083520 67 178 0.0 1.7 0.00 0.00 0.00 85 1017.0
20260901083041 67 179 0.0 0.9 0.00 0.00 0.00 85 1017.0
20260901082520 67 0.0 0.0 0.00 0.00 0.00 85 1016.9
20260901082020 67 178 0.0 0.9 0.00 0.00 0.00 84 1017.1
20260901081539 67 0.0 0.0 0.00 0.00 0.00 85 1017.1
20260901081039 67 178 0.0 0.9 0.00 0.00 0.00 84 1017.1
20260901080521 67 179 0.0 0.9 0.00 0.00 0.00 84 1017.3
20260901080041 67 176 0.0 1.7 0.00 0.00 0.00 84 1017.3
20260901075540 67 158 0.9 1.7 0.00 0.00 0.00 83 1017.4
20260901075020 67 169 0.9 1.7 0.00 0.00 0.00 83 1017.3
20260901074520 67 143 0.0 1.7 0.00 0.00 0.00 83 1017.4
20260901074020 67 174 0.9 1.7 0.00 0.00 0.00 83 1017.4
20260901073519 67 175 0.9 2.6 0.00 0.00 0.00 82 1017.5
20260901073019 67 176 0.9 1.7 0.00 0.00 0.00 82 1017.5
20260901072519 67 189 0.0 0.9 0.00 0.00 0.00 82 1017.5
20260901072021 67 192 0.9 1.7 0.00 0.00 0.00 82 1017.5
20260901071518 67 194 0.9 2.6 0.00 0.00 0.00 82 1017.5
20260901071020 67 188 0.9 1.7 0.00 0.00 0.00 81 1017.6
20260901070520 67 197 0.9 3.5 0.00 0.00 0.00 81 1017.6
20260901070040 67 221 0.9 1.7 0.00 0.00 0.00 81 1017.6
20260901065520 67 197 0.0 1.7 0.00 0.00 0.00 81 1017.5
20260901065019 67 216 0.0 0.9 0.00 0.00 0.00 80 1017.5
20260901064539 67 248 0.0 1.7 0.00 0.00 0.00 80 1017.6
20260901064021 67 202 0.9 1.7 0.00 0.00 0.00 80 1017.5
20260901063521 67 171 0.0 2.6 0.00 0.00 0.00 80 1017.6
20260901063022 67 190 0.9 2.6 0.00 0.00 0.00 79 1017.7
20260901062540 67 0.0 0.0 0.00 0.00 0.00 79 1017.8
20260901062020 67 297 0.0 0.9 0.00 0.00 0.00 79 1017.7
20260901061519 67 181 0.0 0.9 0.00 0.00 0.00 79 1017.6
20260901061019 68 185 0.0 1.7 0.00 0.00 0.00 78 1017.7
20260901060521 68 208 0.0 3.5 0.00 0.00 0.00 78 1017.7
20260901060021 68 208 0.9 3.5 0.00 0.00 0.00 78 1017.6
20260901055520 68 195 0.9 3.5 0.00 0.00 0.00 77 1017.6
20260901055020 68 199 0.9 2.6 0.00 0.00 0.00 77 1017.8
20260901054540 68 195 0.9 2.6 0.00 0.00 0.00 76 1017.7
20260901054020 68 209 0.9 5.2 0.00 0.00 0.00 76 1017.7
20260901053520 68 212 0.9 2.6 0.00 0.00 0.00 76 1017.7
20260901053019 68 191 0.9 2.6 0.00 0.00 0.00 75 1017.7
20260901052521 68 200 0.9 3.5 0.00 0.00 0.00 75 1017.6
20260901052021 68 205 0.9 3.5 0.00 0.00 0.00 74 1017.6
20260901051519 68 153 0.9 5.2 0.00 0.00 0.00 73 1017.7
20260901051040 68 191 0.9 5.2 0.00 0.00 0.00 73 1017.7
20260901050520 68 195 0.9 3.5 0.00 0.00 0.00 73 1017.8
20260901050020 68 233 0.0 1.7 0.00 0.00 0.00 74 1017.7
20260901045519 68 209 0.9 1.7 0.00 0.00 0.00 73 1017.7
20260901045019 68 237 0.0 2.6 0.00 0.00 0.00 73 1017.8
20260901044519 68 215 0.9 2.6 0.00 0.00 0.00 72 1017.8
20260901044021 68 235 0.9 3.5 0.00 0.00 0.00 72 1017.8
20260901043521 68 221 0.9 3.5 0.00 0.00 0.00 72 1017.8
20260901043020 68 210 0.9 3.5 0.00 0.00 0.00 72 1017.7
20260901042521 68 182 0.9 3.5 0.00 0.00 0.00 72 1017.8
20260901042020 68 196 1.7 3.5 0.00 0.00 0.00 72 1017.9
20260901041520 68 174 1.7 3.5 0.00 0.00 0.00 73 1017.8
20260901041019 68 203 1.7 3.5 0.00 0.00 0.00 73 1017.8
20260901040519 68 196 1.7 5.2 0.00 0.00 0.00 74 1017.9
20260901040026 68 218 1.7 7.0 0.00 0.00 0.00 74 1017.9
20260901035521 68 209 2.6 7.0 0.00 0.00 0.00 75 1017.9
20260901035021 68 196 1.7 5.2 0.00 0.00 0.00 77 1018.0
20260901034520 68 208 0.9 6.1 0.00 0.00 0.00 77 1018.0
20260901034020 68 198 1.7 5.2 0.00 0.00 0.00 78 1017.9
20260901033540 68 206 1.7 7.0 0.00 0.00 0.00 79 1017.8
20260901033020 68 177 1.7 5.2 0.00 0.00 0.00 79 1017.9
20260901032519 68 190 2.6 7.0 0.00 0.00 0.00 79 1018.0
20260901032039 68 197 2.6 6.1 0.00 0.00 0.00 80 1017.9
20260901031519 68 215 1.7 5.2 0.00 0.00 0.00 81 1017.9
20260901031041 68 194 1.7 3.5 0.00 0.00 0.00 81 1017.9
20260901030600 68 183 1.7 6.1 0.00 0.00 0.00 81 1017.8
20260901030020 68 179 1.7 5.2 0.00 0.00 0.00 81 1017.8
20260901025520 69 203 2.6 6.1 0.00 0.00 0.00 81 1017.8
20260901025020 69 206 1.7 6.1 0.00 0.00 0.00 81 1017.9
20260901024600 69 203 1.7 5.2 0.00 0.00 0.00 81 1017.8
20260901024019 69 186 1.7 3.5 0.00 0.00 0.00 80 1017.8
20260901023521 69 179 1.7 5.2 0.00 0.00 0.00 80 1017.8
20260901023021 69 190 1.7 3.5 0.00 0.00 0.00 80 1017.8
20260901022541 69 197 1.7 3.5 0.00 0.00 0.00 80 1017.8
20260901022020 69 194 1.7 7.0 0.00 0.00 0.00 80 1017.6
20260901021520 69 188 1.7 7.0 0.00 0.00 0.00 79 1017.8
20260901021040 69 211 0.9 5.2 0.00 0.00 0.00 79 1017.8
20260901020519 69 191 1.7 3.5 0.00 0.00 0.00 79 1017.9
20260901020040 69 196 1.7 5.2 0.00 0.00 0.00 78 1017.7
20260901015539 69 179 1.7 3.5 0.00 0.00 0.00 78 1017.8
20260901015021 69 218 0.9 6.1 0.00 0.00 0.00 78 1017.8
20260901014521 69 202 2.6 6.1 0.00 0.00 0.00 77 1017.9
20260901014020 70 194 1.7 6.1 0.00 0.00 0.00 76 1017.9
20260901013525 70 203 2.6 7.0 0.00 0.00 0.00 76 1017.9
20260901013020 70 208 1.7 5.2 0.00 0.00 0.00 75 1018.0
20260901012521 70 201 0.9 2.6 0.00 0.00 0.00 75 1018.0
20260901012020 70 192 1.7 6.1 0.00 0.00 0.00 75 1018.1
20260901011544 70 202 1.7 3.5 0.00 0.00 0.00 74 1018.0
20260901011039 70 203 1.7 3.5 0.00 0.00 0.00 75 1018.0
20260901010521 70 205 0.9 6.1 0.00 0.00 0.00 75 1017.9
20260901010020 69 196 1.7 6.1 0.00 0.00 0.00 75 1017.9
20260901005520 69 197 0.9 1.7 0.00 0.00 0.00 75 1017.9
20260901005020 69 220 0.0 1.7 0.00 0.00 0.00 75 1017.8
20260901004520 69 203 0.0 1.7 0.00 0.00 0.00 75 1017.7
20260901004020 68 212 0.0 2.6 0.00 0.00 0.00 76 1017.8
20260901003519 68 209 0.0 2.6 0.00 0.00 0.00 74 1017.7
20260901003019 68 192 0.0 1.7 0.00 0.00 0.00 75 1017.7
20260901002521 68 158 0.0 0.9 0.00 0.00 0.00 74 1017.7
20260901002020 68 158 0.0 1.7 0.00 0.00 0.00 74 1017.7
20260901001539 68 177 0.0 1.7 0.00 0.00 0.00 75 1017.8
20260901001020 68 189 0.0 1.7 0.00 0.00 0.00 75 1017.7
20260901000520 68 0.0 0.0 0.00 0.00 0.00 74 1017.7
20260901000020 68 189 0.0 0.9 0.00 0.00 0.00 74 1017.7
20260831235520 68 0.0 0.0 0.00 0.00 0.00 73 1017.7
20260831235059 68 0.0 0.0 0.00 0.00 0.00 73 1017.7
20260831234519 69 0.0 0.0 0.00 0.00 0.00 71 1017.7
20260831234021 69 0.0 0.0 0.00 0.00 0.00 72 1017.8
20260831233520 69 0.0 0.0 0.00 0.00 0.00 71 1017.8
20260831233020 69 0.0 0.0 0.00 0.00 0.00 70 1017.7
20260831232520 70 0.0 0.0 0.00 0.00 0.00 69 1017.8
20260831232020 70 0.0 0.0 0.00 0.00 0.00 71 1017.9
20260831231520 70 0.0 0.0 0.00 0.00 0.00 67 1017.9
20260831231019 71 0.0 0.0 0.00 0.00 0.00 66 1017.9
20260831230519 71 0.0 0.0 0.00 0.00 0.00 65 1017.9
20260831230019 71 0.0 0.0 0.00 0.00 0.00 64 1018.1
20260831225520 71 0.0 0.0 0.00 0.00 0.00 63 1018.0
20260831225020 71 0.0 0.0 0.00 0.00 0.00 64 1017.9
20260831224522 72 0.0 0.0 0.00 0.00 0.00 65 1018.0
20260831224020 72 0.0 0.0 0.00 0.00 0.00 64 1017.9
20260831223540 73 0.0 0.0 0.00 0.00 0.00 64 1018.1
20260831223020 73 188 0.0 0.9 0.00 0.00 0.00 61 1018.1
20260831222539 74 188 0.0 1.7 0.00 0.00 0.00 60 1018.1
20260831222019 74 196 0.9 5.2 0.00 0.00 0.00 58 1018.0
20260831221519 73 242 0.0 1.7 0.00 0.00 0.00 58 1018.1
20260831221020 74 0.0 0.9 0.00 0.00 0.00 60 1018.0
20260831220540 74 228 0.0 0.9 0.00 0.00 0.00 58 1018.0
20260831220040 75 220 0.0 1.7 0.00 0.00 0.00 55 1018.0
20260831215520 75 183 0.9 3.5 0.00 0.00 0.00 54 1017.8
20260831215020 76 184 0.9 2.6 0.00 0.00 0.00 53 1017.9
20260831214519 76 223 0.9 2.6 0.00 0.00 0.00 52 1017.8
20260831214019 76 262 0.9 2.6 0.00 0.00 0.00 53 1017.9
20260831213521 76 196 0.9 3.5 0.00 0.00 0.00 51 1018.0
20260831213041 76 175 2.6 6.1 0.00 0.00 0.00 51 1018.0
20260831212521 76 282 0.9 6.1 0.00 0.00 0.00 50 1018.1
20260831212020 76 221 1.7 3.5 0.00 0.00 0.00 52 1018.1
20260831211540 76 157 0.9 1.7 0.00 0.00 0.00 53 1018.1
20260831211020 76 253 0.0 1.7 0.00 0.00 0.00 54 1018.0
20260831210519 76 186 0.9 1.7 0.00 0.00 0.00 52 1018.1
20260831210019 76 260 0.0 1.7 0.00 0.00 0.00 53 1018.1
20260831205519 76 250 0.0 1.7 0.00 0.00 0.00 50 1018.1
20260831205021 76 248 0.0 1.7 0.00 0.00 0.00 50 1018.1
20260831204520 77 286 0.0 3.5 0.00 0.00 0.00 50 1018.1
20260831204020 76 186 0.9 7.0 0.00 0.00 0.00 47 1018.1
20260831203520 76 213 0.9 1.7 0.00 0.00 0.00 48 1018.2
20260831203020 76 320 0.9 2.6 0.00 0.00 0.00 48 1018.1
20260831202519 77 277 1.7 6.1 0.00 0.00 0.00 48 1018.0
20260831202040 77 184 0.9 3.5 0.00 0.00 0.00 47 1017.9
20260831201519 77 178 0.9 5.2 0.00 0.00 0.00 46 1018.1